Location: Amsterdam
(30.7274°N, 84.4357°W)
Time: 01:17:50
(UTC+00:00)

Courier 1B Rocket - Pass Details

Date: 09 February 2026
Orbit: 920 x 1201 km, 28.2° (Epoch: 10 March)

Event Time Altitude Azimuth Distance (km) Brightness Sun altitude
Rises 09:15:45 0° 275° (W) 4,009 - -40.8°
Reaches altitude 10° 09:18:41 10° 268° (W) 3,076 - -40.1°
Maximum altitude 09:25:46 41° 202° (SSW) 1,669 - -38.6°
Exits shadow 09:28:55 29° 157° (SSE) 2,036 6.7 -37.9°
Drops below altitude 10° 09:32:57 10° 135° (SE) 3,120 8.0 -37.1°
Sets 09:35:59 0° 128° (SE) 4,072 8.8 -36.4°
